THOR ABLESTAR DEB, 560

Orbit data source: Space-Track

THOR ABLESTAR DEB, 560 is space debris in LEO originally from a launch on Thu, 29 Jun 1961 UTC launched from the Air Force Eastern Test Range (AFETR). Debris objects in space refer to the collection of defunct objects orbiting the Earth. Examples of debris include non-operational satellites, rocket bodies, and fragments generated from explosions, collisions, or faulty payload assembly.

Loading next visibility...
Identifier
560, 1961-015GS
Orbit
LEO
Country
Flag of USUS
Related business
Manufacturer
Unknown
Mission
Spacecraft
Bus & Motor
Unknown
Mass
Unknown
Launch date (UTC)
1961-06-29 (65 years ago)
Launch vehicle
Unknown
Launch site
Air Force Eastern Test Range (AFETR)
Object type
Payload
Rocket body
Debris
Shape & HBR
Unknown shape, 0.1 m
Radar Cross Section
Medium (>0.1 m² and <1 m²)

Expand to show TLE details & history
Last TLE update: 1 week ago

TLE from 1 week ago
0 THOR ABLESTAR DEB
1 00560U 61015GS  26154.61571633  .00001430  00000-0  14860-2 0  9993
2 00560  67.1587 284.0239 0306800 316.3863  41.3313 13.59449171152560
Epoch: 2026-06-03T14:46Z
TLE epoch observation values (Epoch: 2026-06-03T14:46:37.890Z)
Latitude
-0.0001°
Longitude
170.2942°
Altitude
872.062 km
Speed
7.5 km/s
True Right ascension
18h 56m 05s
True Declination
0° 00' 00"
Sunlit
Object was in full shadow at epoch
Visualization orbit readout
Latitude
Unknown
Longitude
Unknown
Altitude
Unknown
Speed
Unknown
Apparent Right ascension
Unknown
Apparent Declination
Unknown
Sunlit
N/A
Visualization observer readout
Local Sidereal Time
13:02:51
Azimuth
Unknown
Elevation
Unknown
Doppler factor
Unknown
Orbital elements
Apogee altitude
1,263.538 km
Perigee altitude
808.602 km
Semi-major axis
7,414.207 km
Eccentricity
0.03068
Inclination
67.1587°
RAAN
284.0239°
Arg. of periapsis
316.3863°
True anomaly
43.72115°
Mean anomaly
41.3313°
Eccentric anomaly
42.51931°
Mean motion
3.39974 °/min
Orbital period
105.89 mins
BSTAR
0.001486
Loading maneuver chart data...
Computing Atmospheric mass density...
Loading historical data...
Loading historical data...
Loading historical data...
Loading historical data...
Loading historical data...
Loading historical data...
Loading historical data...

Documentation

Showing up to 5 results
|